Location: Champs
(48.8539°N, 2.6040°E)
Time: 10:09:42
(UTC+00:00)

ERS-1 Rocket - Visible Passes

Search period start: 17 August 2022 00:00
Search period end: 27 August 2022 00:00
Orbit: 752 x 758 km, 98.4° (Epoch: 16 August)

Date Brightness Start Highest point End Pass type
(mag) Time Alt. Az. Time Alt. Az. Time Alt. Az.
17 Aug 3.6 20:34:23 21° SE 20:37:18 41° ENE 20:41:59 10° N visible
17 Aug 4.4 22:14:23 24° SW 22:16:12 30° W 22:20:35 10° NNW visible
18 Aug 4.5 19:54:14 10° ESE 19:57:52 21° ENE 20:01:34 10° NNE visible
18 Aug 3.2 21:34:13 36° S 21:36:13 65° WSW 21:41:14 10° NNW visible
19 Aug 3.1 20:54:04 30° SE 20:56:28 59° ENE 21:01:24 10° N visible
19 Aug 4.8 22:34:03 18° WSW 22:35:38 21° W 22:39:23 10° NW visible
20 Aug 4.1 20:13:54 16° ESE 20:16:55 29° ENE 20:21:12 10° N visible
20 Aug 3.8 21:53:54 33° SW 21:55:32 44° W 22:00:21 10° NNW visible
21 Aug 4.9 19:34:49 10° E 19:37:37 15° NE 19:40:24 10° NNE visible
21 Aug 2.9 21:13:45 39° SSE 21:15:40 85° ENE 21:20:43 10° NNW visible
21 Aug 5.2 22:53:44 13° WSW 22:55:08 14° W 22:57:46 10° NW visible
22 Aug 3.6 20:33:36 24° ESE 20:36:01 40° ENE 20:40:43 10° N visible
22 Aug 4.3 22:13:35 27° WSW 22:14:55 30° W 22:19:21 10° NNW visible
23 Aug 4.5 19:53:26 12° ESE 19:56:37 21° ENE 20:00:16 10° NNE visible
23 Aug 3.1 21:33:26 44° SSW 21:34:55 66° WSW 21:39:57 10° NNW visible
24 Aug 3.1 20:53:17 35° SE 20:55:10 58° ENE 21:00:07 10° N visible
24 Aug 4.8 22:33:16 20° WSW 22:34:20 21° W 22:38:08 10° NW visible
25 Aug 4.1 20:13:08 19° ESE 20:15:39 28° ENE 20:19:54 10° N visible
25 Aug 3.7 21:53:07 39° SW 21:54:15 45° W 21:59:05 10° NNW visible
26 Aug 4.9 19:33:38 10° E 19:36:21 15° NE 19:39:04 10° NNE visible
26 Aug 2.9 21:12:58 49° SSE 21:14:23 84° ENE 21:19:26 10° NNW visible
26 Aug 5.2 22:52:58 14° W 22:53:50 15° W 22:56:34 10° NW visible
